Location: Maiden
(35.5760°N, 81.2120°W)
Time: 03:25:44
(UTC-04:00)

CZ-3A R/B - Pass Details

Date: 02 August 2020
Orbit: 140 x 9476 km, 24.2° (Epoch: 11 August)

Event Time Altitude Azimuth Distance (km) Brightness Sun altitude
Rises 22:04:30 0° 264° (W) 11,374 8.7 -17.9°
Reaches altitude 10° 22:16:50 10° 261° (W) 8,374 7.8 -19.9°
Maximum altitude 22:37:20 42° 200° (SSW) 2,273 4.1 -22.9°
Enters shadow 22:39:48 35° 163° (SSE) 2,020 3.6 -23.3°
